Location: STAR School
(35.3054°N, 111.2976°W)
Time: 08:17:38
(UTC-07:00)

Vanguard 1 - All Passes

Search period start: 23 May 2019 00:00
Search period end: 02 June 2019 00:00
Orbit: 653 x 3830 km, 34.2° (Epoch: 22 May)

Date Brightness Start Highest point End Pass type
(mag) Time Alt. Az. Time Alt. Az. Time Alt. Az.
23 May - 11:28:07 10° SW 11:32:32 49° SSE 11:38:47 10° E daylight
23 May - 13:47:02 10° W 13:52:49 84° S 14:03:17 10° E daylight
23 May - 16:06:24 10° W 16:14:28 63° SSW 16:29:41 10° ESE daylight
23 May - 18:27:22 10° W 18:37:36 33° SSW 18:53:39 10° SSE daylight
24 May - 09:31:38 10° S 09:34:07 15° SSE 09:36:42 10° ESE daylight
24 May - 11:48:51 10° WSW 11:53:25 63° SSE 12:00:11 10° E daylight
24 May - 14:07:57 10° W 14:13:57 81° S 14:24:55 10° E daylight
24 May - 16:27:28 10° W 16:35:43 53° SSW 16:50:52 10° SE daylight
24 May - 18:49:22 10° W 18:59:01 25° SSW 19:13:07 10° SSE daylight
25 May - 09:51:20 10° SSW 09:54:52 23° SSE 09:58:41 10° E daylight
25 May - 12:09:41 10° WSW 12:14:23 75° S 12:21:35 10° E daylight
25 May - 14:28:53 10° W 14:35:05 75° S 14:46:31 10° ESE daylight
25 May - 16:48:38 10° W 16:56:59 43° SSW 17:11:44 10° SE daylight
25 May - 19:12:09 10° WSW 19:20:30 18° SSW 19:31:38 10° S daylight
26 May - 10:11:38 10° SW 10:15:40 34° SSE 10:20:11 10° E daylight
26 May - 12:30:36 10° W 12:35:25 81° S 12:43:00 10° E daylight
26 May - 14:49:50 10° W 14:56:12 66° SSW 15:07:59 10° ESE daylight
26 May - 17:10:00 10° W 17:18:18 35° SSW 17:32:10 10° SSE daylight
26 May - 19:36:58 10° SW 19:42:03 12° SW 19:47:59 10° SSW daylight
27 May - 08:16:49 10° SSE 08:16:59 10° SSE 08:17:09 10° SSE daylight
27 May - 10:32:16 10° SW 10:36:30 48° SSE 10:41:30 10° E daylight
27 May - 12:51:31 10° W 12:56:28 82° S 13:04:28 10° E daylight
27 May - 15:10:49 10° W 15:17:21 55° SSW 15:29:16 10° SE daylight
27 May - 17:31:40 10° W 17:39:40 27° SSW 17:52:04 10° SSE daylight
28 May - 08:34:45 10° SSW 08:37:53 17° SSE 08:40:46 10° ESE daylight
28 May - 10:53:04 10° WSW 10:57:25 62° SSE 11:02:45 10° E daylight
28 May - 13:12:28 10° W 13:17:32 78° S 13:25:55 10° ESE daylight
28 May - 15:31:53 10° W 15:38:32 45° SSW 15:50:18 10° SE daylight
28 May - 17:53:55 10° WSW 18:01:06 20° SSW 18:11:13 10° S daylight
29 May - 08:54:44 10° SSW 08:58:46 25° SSE 09:02:27 10° E daylight
29 May - 11:13:59 10° WSW 11:18:22 75° S 11:23:59 10° E daylight
29 May - 13:33:24 10° W 13:38:36 69° S 13:47:19 10° ESE daylight
29 May - 15:53:06 10° W 15:59:45 36° SSW 16:10:58 10° SE daylight
29 May - 18:17:29 10° SW 18:22:35 13° SSW 18:28:52 10° S daylight
30 May - 09:15:12 10° SW 09:19:39 36° SSE 09:23:47 10° E daylight
30 May - 11:34:57 10° W 11:39:22 81° S 11:45:15 10° E daylight
30 May - 13:54:21 10° W 13:59:40 58° SSW 14:08:36 10° ESE daylight
30 May - 16:14:34 10° W 16:21:02 27° SSW 16:31:12 10° SSE daylight
31 May - 07:17:27 10° S 07:20:40 15° SSE 07:23:23 10° ESE daylight
31 May - 09:35:58 10° WSW 09:40:35 50° SSE 09:44:57 10° E daylight
31 May - 11:55:55 10° W 12:00:24 80° S 12:06:33 10° E daylight
31 May - 14:15:22 10° W 14:20:44 47° SSW 14:29:41 10° SE daylight
31 May - 16:36:30 10° WSW 16:42:21 20° SSW 16:50:46 10° SSE daylight
01 Jun - 07:37:05 10° SSW 07:41:41 22° SSE 07:45:19 10° ESE daylight
01 Jun - 09:56:54 10° WSW 10:01:31 64° SSE 10:06:04 10° E daylight
01 Jun - 12:16:53 10° W 12:21:24 73° S 12:27:49 10° ESE daylight
01 Jun - 14:36:30 10° W 14:41:51 36° SSW 14:50:30 10° SE daylight
01 Jun - 16:59:26 10° SW 17:03:44 14° SSW 17:09:08 10° S daylight
